DELTA 1 DEB

Satellite information

Favourite Embed

Satellite Type and Status

DEBRISIN ORBIT

Key statistics

Satellite DELTA 1 DEB at a glance.

Uptime

17995

Days in orbit

Revolutions

≈ 11.7

Per day

Orbit

MEO

Medium Earth Orbit

Inclination

101.9

Latest

Satellite identification and parameters

Extended collection of information and parameters for DELTA 1 DEB.

Object identification

Identified? True

Debris? True

Object name: DELTA 1 DEB

International designator: 1976-077EB

Object number (NORAD): 13529

Object ID (CCSDS): 13529

Country: UNITED STATES OF AMERICA (US)

Current information (Y/N): Y

RCS size: SMALL

Orbital parameters

Period: 123.491 minutes

Inclination: 101.8755 deg

SMA: 8214.565 km

Apoapsis: 2148.471 km

Periapsis: 1524.39 km

RAAN: 38.2298 deg

Eccentricy: 0.03798623

Argument of periapsis: 14.0769 deg

Mean anomaly: 54.2223 deg

Mean motion: 11.66073375 rev/day

Mean motion (dot): -0.0000011 rev/day2

B* drag term: -0.0011599127 1/REarth

Two-line elements (TLE)

Creation date: Nov. 1, 2025, 7:40 p.m.

Reference frame: TEME

Reference center: EARTH

Epoch: Nov. 1, 2025, 3:58 a.m. UTC

TLE line 0: 0 DELTA 1 DEB

TLE line 1: 1 13529U 76077EB 25305.16565818 -.00000110 00000-0 -11599-2 0 9993

TLE line 2: 2 13529 101.8755 38.2298 0379862 14.0769 54.2223 11.66073375915308

Live tracking on map

Real-time ground track for satellite DELTA 1 DEB.

In-orbit conjunctions

A list of the most updated potential collisions computed for object DELTA 1 DEB.

Target Orbit TCA Probability of collision Miss distance Type
COSMOS 88 LEO 2025-03-26 12:59:44 0.0002616949 643.0 (m) PAYLOAD

Associated space launch

Meteorological satellite using radiometric imaging

DELTA 1 DEB was lifted into orbit during the mission ‘Delta 2310 | NOAA 5’, on board a Delta 2310 space rocket.

The launch took place on July 29, 1976, 5:07 p.m. from Space Launch Complex 2W.

For more information about the launch, click the button.

Launch to space Delta 2310 | NOAA 5
Delta 2310 | NOAA 5

Agency: N/A

Status: Launch Successful

Launch date: July 29, 1976, 5:07 p.m. UTC

Rocket: Delta 2310

Launch pad: Space Launch Complex 2W

Location: Vandenberg SFB, CA, USA

...

Latest news about this satellite

There are no fresh news available about this satellite. Check back as we update our databases every day.


Newsletter sign-up

Weekly statistics, charts and insights to help you stay on top of the space industry.